Calgary, Alberta

5:12 AM MDT on May 20, 2018 (GMT -0600)
Calgary International

Weather History for CYYC - November, 2012

Change the Weather History Date:

Sunday, November 4, 2012

  Actual Average Record
Temperature  
Mean Temperature 34 °F -  
Max Temperature 43 °F 36 °F 71 °F (2010)
Min Temperature 26 °F 15 °F -7 °F (2003)
Degree Days  
Heating Degree Days 30    
Moisture  
Dew Point 32 °F    
Average Humidity 81    
Maximum Humidity 93    
Minimum Humidity 60    
Precipitation  
Precipitation 0.00 in 0.02 in - ()
Sea Level Pressure  
Sea Level Pressure 30.17 in    
Wind  
Wind Speed 10 mph ()    
Max Wind Speed 20 mph    
Max Gust Speed 26 mph    
Visibility 15.0 miles    
Events      
Averages and records for this station are not official NWS values.
T = Trace of Precipitation, MM = Missing Value Source: Averaged Metar Reports

Daily Weather History Graph

Daily Weather History Graph

Search for Another Location

Airport or City:

Astronomy

Nov. 04, 2012 Rise Set
Actual Time 7:34 AM MST 5:03 PM MST
Civil Twilight 6:59 AM MST 5:38 PM MST
Nautical Twilight 6:20 AM MST 6:18 PM MST
Astronomical Twilight 5:41 AM MST 6:56 PM MST
Moon 9:40 PM MST (11/4) 12:28 PM MST (11/4)
Length of Visible Light 10h 39m
Length of Day
9h 28m
Waning Gibbous, 71% of the Moon is Illuminated
Nov 4
Waning Gibbous
Nov 6
Last Quarter
Nov 13
New
Nov 20
First Quarter
Nov 28
Full

Hourly Weather History & Observations

Time (MST) Temp. Windchill Dew Point Humidity Pressure Visibility Wind Dir Wind Speed Gust Speed Precip Events Conditions
12:00 AM 40 °F - 31 °F 61% 30.05 in 15 mi NNW 19.6 mph - -   Mostly Cloudy
12:00 AM 39.2 °F 29.6 °F 32.0 °F 75% 30.05 in 15.0 mi NNW 19.6 mph 26.5 mph N/A   Mostly Cloudy
1:00 AM 35.6 °F 27.1 °F 30.2 °F 81% 30.08 in 15.0 mi NW 12.7 mph - N/A   Mostly Cloudy
1:00 AM 37.4 °F 30.3 °F 32.0 °F 81% 30.12 in 15.0 mi WNW 10.4 mph - N/A   Mostly Cloudy
2:00 AM 33.8 °F 24.3 °F 30.2 °F 87% 30.15 in 15.0 mi NW 13.8 mph - N/A   Partly Cloudy
3:00 AM 32.0 °F 23.6 °F 28.4 °F 87% 30.18 in 15.0 mi NW 10.4 mph - N/A   Partly Cloudy
4:00 AM 30.2 °F 22.6 °F 28.4 °F 93% 30.20 in 15.0 mi WNW 8.1 mph - N/A   Clear
5:00 AM 30 °F - 27 °F 85% 30.23 in 15 mi NW 6.9 mph - -   Clear
5:00 AM 30.2 °F 23.4 °F 26.6 °F 86% 30.23 in 15.0 mi NW 6.9 mph - N/A   Partly Cloudy
6:00 AM 28.4 °F 20.4 °F 26.6 °F 93% 30.25 in 15.0 mi NW 8.1 mph - N/A   Partly Cloudy
7:00 AM 30.2 °F 22.6 °F 28.4 °F 93% 30.26 in 15.0 mi WSW 8.1 mph - N/A   Scattered Clouds
8:00 AM 28.4 °F 21.2 °F 24.8 °F 86% 30.29 in 40.0 mi West 6.9 mph - N/A   Partly Cloudy
9:00 AM 30.2 °F 22.6 °F 28.4 °F 93% 30.28 in 40.0 mi WSW 8.1 mph - N/A   Partly Cloudy
10:00 AM 37.4 °F 30.8 °F 30.2 °F 75% 30.27 in 40.0 mi SW 9.2 mph - N/A   Partly Cloudy
11:00 AM 41 °F - 32 °F 60% 30.25 in 37 mi SW 9.2 mph - -   Scattered Clouds
11:00 AM 41.0 °F 35.8 °F 32.0 °F 70% 30.25 in 40.0 mi SW 8.1 mph - N/A   Mostly Cloudy
12:00 PM 42.8 °F 36.2 °F 33.8 °F 70% 30.23 in 40.0 mi SSW 12.7 mph - N/A   Partly Cloudy
1:00 PM 42.8 °F 36.2 °F 33.8 °F 70% 30.22 in 40.0 mi South 12.7 mph - N/A   Mostly Cloudy
2:00 PM 41.0 °F 33.9 °F 33.8 °F 76% 30.19 in 40.0 mi South 12.7 mph - N/A   Mostly Cloudy
3:00 PM 41.0 °F 33.9 °F 33.8 °F 76% 30.18 in 40.0 mi SSW 12.7 mph - N/A   Overcast
4:00 PM 39.2 °F 33.6 °F 35.6 °F 87% 30.18 in 40.0 mi SSW 8.1 mph - N/A   Overcast
5:00 PM 41 °F - 35 °F 73% 30.17 in 37 mi West 4.6 mph - -   Mostly Cloudy
5:00 PM 41.0 °F - 35.6 °F 81% 30.17 in 40.0 mi Calm Calm - N/A   Mostly Cloudy
6:00 PM 39.2 °F 35.0 °F 35.6 °F 87% 30.15 in 15.0 mi SW 5.8 mph - N/A   Overcast
7:00 PM 41.0 °F 34.3 °F 35.6 °F 81% 30.12 in 15.0 mi SW 11.5 mph 18.4 mph N/A   Overcast
8:00 PM 41.0 °F 33.9 °F 35.6 °F 81% 30.09 in 15.0 mi SSW 12.7 mph - N/A   Mostly Cloudy
9:00 PM 39.2 °F 32.0 °F 33.8 °F 81% 30.04 in 15.0 mi SW 11.5 mph - N/A   Mostly Cloudy
10:00 PM 39.2 °F 32.0 °F 35.6 °F 87% 29.99 in 15.0 mi WSW 11.5 mph - N/A   Scattered Clouds